When you browse on this site, cookies collect data to enhance your experience and personalize the content and advertising you see.
Visit our Privacy Policy to learn more. By continuing to use the site, you agree to this use of cookies and data.
  • In United Kingdom
  • List of Countries
  • For 7 days
  • Water Temperature
  • Weather Map
  • Weather Widgets
  • user-avatar
    Login

    Hourly Weather Dundee

    Today, 28 February, Friday

    Time Temperature Precipitation Wind Pressure Humidity
    00:00 -1°C° 0 mm 5 mps 743 mmHg 88%
    01:00 -1°C° 0 mm 5 mps 743 mmHg 89%
    02:00 -1°C° 0 mm 5 mps 742 mmHg 90%
    03:00 -1°C° 0 mm 5 mps 742 mmHg 91%
    04:00 -1°C° 0 mm 4 mps 742 mmHg 91%
    05:00 -1°C° 0 mm 4 mps 741 mmHg 91%
    06:00 -1°C° 0 mm 4 mps 741 mmHg 91%
    07:00 0°C° 0 mm 3 mps 740 mmHg 88%
    08:00 +1°C° 0 mm 3 mps 740 mmHg 86%
    09:00 +1°C° 0 mm 3 mps 739 mmHg 83%
    10:00 +1°C° 0.2 mm 4 mps 738 mmHg 84%
    11:00 +1°C° 0.2 mm 4 mps 737 mmHg 84%
    12:00 +1°C° 0.2 mm 5 mps 736 mmHg 85%
    13:00 +1°C° 0.9 mm 6 mps 735 mmHg 89%
    14:00 -1°C° 0.9 mm 6 mps 733 mmHg 93%
    15:00 -2°C° 0.9 mm 6 mps 732 mmHg 97%
    16:00 0°C° 0.7 mm 5 mps 730 mmHg 97%
    17:00 +1°C° 0.7 mm 3 mps 729 mmHg 97%
    18:00 +2°C° 0.7 mm 2 mps 728 mmHg 97%
    19:00 +3°C° 0 mm 1 mps 728 mmHg 97%
    20:00 +3°C° 0 mm 1 mps 727 mmHg 97%
    21:00 +3°C° 0 mm 1 mps 726 mmHg 97%
    22:00 +3°C° 0 mm 1 mps 726 mmHg 97%
    23:00 +3°C° 0 mm 2 mps 725 mmHg 97%

    Tomorrow, 29 February, Saturday

    Time Temperature Precipitation Wind Pressure Humidity
    00:00 +3°C° 0 mm 2 mps 724 mmHg 97%
    01:00 +2°C° 0.3 mm 3 mps 722 mmHg 97%
    02:00 +3°C° 0.3 mm 4 mps 721 mmHg 97%
    03:00 +3°C° 0.3 mm 5 mps 719 mmHg 98%
    04:00 +4°C° 1.1 mm 6 mps 717 mmHg 97%
    05:00 +4°C° 1.1 mm 7 mps 716 mmHg 96%
    06:00 +5°C° 1.1 mm 8 mps 715 mmHg 95%
    07:00 +2°C° 0.2 mm 8 mps 715 mmHg 93%
    08:00 +1°C° 0.2 mm 9 mps 715 mmHg 90%
    09:00 0°C° 0.2 mm 10 mps 715 mmHg 88%
    10:00 0°C° 0 mm 10 mps 715 mmHg 80%
    11:00 0°C° 0 mm 10 mps 715 mmHg 73%
    12:00 0°C° 0 mm 9 mps 716 mmHg 65%
    13:00 0°C° 0 mm 9 mps 714 mmHg 66%
    14:00 0°C° 0 mm 9 mps 713 mmHg 67%
    15:00 0°C° 0 mm 9 mps 712 mmHg 68%
    16:00 0°C° 0.4 mm 9 mps 711 mmHg 77%
    17:00 -1°C° 0.4 mm 9 mps 710 mmHg 86%
    18:00 -1°C° 0.4 mm 9 mps 709 mmHg 95%
    19:00 -2°C° 0.6 mm 10 mps 708 mmHg 93%
    20:00 -2°C° 0.6 mm 10 mps 708 mmHg 92%
    21:00 -2°C° 0.6 mm 11 mps 708 mmHg 91%
    22:00 -2°C° 0.3 mm 10 mps 708 mmHg 91%
    23:00 -2°C° 0.3 mm 10 mps 708 mmHg 91%

    Day after tomorrow, 1 March, Sunday

    Time Temperature Precipitation Wind Pressure Humidity
    00:00 -2°C° 0.3 mm 10 mps 708 mmHg 91%
    01:00 -2°C° 0.7 mm 10 mps 709 mmHg 93%
    02:00 -1°C° 0.7 mm 9 mps 709 mmHg 94%
    03:00 -1°C° 0.7 mm 9 mps 710 mmHg 96%
    04:00 -2°C° 0.4 mm 10 mps 711 mmHg 93%
    05:00 -2°C° 0.4 mm 11 mps 711 mmHg 91%
    06:00 -2°C° 0.4 mm 12 mps 712 mmHg 88%
    07:00 -2°C° 0 mm 13 mps 712 mmHg 86%
    08:00 -2°C° 0 mm 14 mps 712 mmHg 85%
    09:00 -2°C° 0 mm 14 mps 712 mmHg 83%
    10:00 -1°C° 0.2 mm 13 mps 712 mmHg 85%
    11:00 -1°C° 0.2 mm 11 mps 713 mmHg 87%
    12:00 +1°C° 0.2 mm 10 mps 713 mmHg 88%
    13:00 0°C° 0.3 mm 10 mps 714 mmHg 89%
    14:00 0°C° 0.3 mm 10 mps 715 mmHg 90%
    15:00 -1°C° 0.3 mm 11 mps 715 mmHg 90%
    16:00 -1°C° 0.5 mm 11 mps 716 mmHg 89%
    17:00 -1°C° 0.5 mm 11 mps 717 mmHg 89%
    18:00 -1°C° 0.5 mm 12 mps 717 mmHg 88%
    19:00 -2°C° 0 mm 11 mps 717 mmHg 85%
    20:00 -1°C° 0 mm 9 mps 717 mmHg 82%
    21:00 -2°C° 0 mm 8 mps 718 mmHg 80%
    22:00 -2°C° 0.2 mm 7 mps 718 mmHg 84%
    23:00 -2°C° 0.2 mm 7 mps 718 mmHg 88%

    2 March, Monday

    Time Temperature Precipitation Wind Pressure Humidity
    00:00 -2°C° 0.2 mm 6 mps 718 mmHg 92%
    01:00 -1°C° 0.1 mm 6 mps 718 mmHg 92%
    02:00 -1°C° 0.1 mm 7 mps 718 mmHg 91%
    03:00 0°C° 0.1 mm 7 mps 719 mmHg 90%
    04:00 -1°C° 0.1 mm 7 mps 719 mmHg 91%
    05:00 -1°C° 0.1 mm 7 mps 719 mmHg 92%
    06:00 -1°C° 0.1 mm 7 mps 720 mmHg 93%
    07:00 -1°C° 0.1 mm 6 mps 720 mmHg 93%
    08:00 +1°C° 0.1 mm 6 mps 721 mmHg 93%
    09:00 +1°C° 0.1 mm 5 mps 721 mmHg 93%
    10:00 +2°C° 0 mm 5 mps 722 mmHg 91%
    11:00 +3°C° 0 mm 5 mps 722 mmHg 88%
    12:00 +3°C° 0 mm 5 mps 723 mmHg 86%
    13:00 +3°C° 0.2 mm 6 mps 723 mmHg 84%
    14:00 +3°C° 0.2 mm 6 mps 723 mmHg 83%
    15:00 +4°C° 0.2 mm 6 mps 724 mmHg 81%
    16:00 +3°C° 0.1 mm 6 mps 724 mmHg 84%
    17:00 +2°C° 0.1 mm 6 mps 724 mmHg 87%
    18:00 +2°C° 0.1 mm 5 mps 725 mmHg 90%
    19:00 +2°C° 0.6 mm 5 mps 725 mmHg 91%
    20:00 +2°C° 0.6 mm 6 mps 725 mmHg 93%
    21:00 +1°C° 0.6 mm 6 mps 726 mmHg 94%
    22:00 +1°C° 0.2 mm 6 mps 726 mmHg 93%
    23:00 +2°C° 0.2 mm 5 mps 727 mmHg 92%

    3 March, Tuesday

    Time Temperature Precipitation Wind Pressure Humidity
    00:00 +2°C° 0.2 mm 5 mps 727 mmHg 91%
    01:00 +1°C° 0 mm 5 mps 728 mmHg 91%
    02:00 +1°C° 0 mm 5 mps 728 mmHg 91%
    03:00 0°C° 0 mm 5 mps 729 mmHg 91%
    04:00 0°C° 0 mm 4 mps 729 mmHg 91%
    05:00 0°C° 0 mm 4 mps 730 mmHg 91%
    06:00 -1°C° 0 mm 4 mps 731 mmHg 91%
    07:00 0°C° 0 mm 4 mps 731 mmHg 89%
    08:00 +1°C° 0 mm 4 mps 732 mmHg 87%
    09:00 +1°C° 0 mm 5 mps 732 mmHg 86%
    10:00 +2°C° 0 mm 5 mps 732 mmHg 83%
    11:00 +3°C° 0 mm 6 mps 733 mmHg 80%
    12:00 +4°C° 0 mm 7 mps 733 mmHg 78%
    13:00 +4°C° 0.1 mm 7 mps 733 mmHg 78%
    14:00 +4°C° 0.1 mm 7 mps 733 mmHg 78%
    15:00 +4°C° 0.1 mm 7 mps 734 mmHg 79%
    16:00 +3°C° 0 mm 7 mps 734 mmHg 81%
    17:00 +3°C° 0 mm 6 mps 734 mmHg 84%
    18:00 +2°C° 0 mm 5 mps 735 mmHg 86%
    19:00 +2°C° 0 mm 5 mps 735 mmHg 87%
    20:00 +1°C° 0 mm 5 mps 735 mmHg 87%
    21:00 +1°C° 0 mm 5 mps 736 mmHg 88%
    22:00 0°C° 0 mm 5 mps 736 mmHg 88%
    23:00 0°C° 0 mm 5 mps 736 mmHg 88%

    4 March, Wednesday

    Time Temperature Precipitation Wind Pressure Humidity
    00:00 0°C° 0 mm 5 mps 736 mmHg 88%
    01:00 -1°C° 0 mm 4 mps 737 mmHg 89%
    02:00 -1°C° 0 mm 4 mps 737 mmHg 89%
    03:00 -1°C° 0 mm 4 mps 737 mmHg 90%
    04:00 -1°C° 0 mm 4 mps 737 mmHg 90%
    05:00 0°C° 0 mm 3 mps 737 mmHg 91%
    06:00 0°C° 0 mm 3 mps 738 mmHg 92%
    07:00 0°C° 0 mm 3 mps 738 mmHg 90%
    08:00 +1°C° 0 mm 3 mps 738 mmHg 89%
    09:00 +3°C° 0 mm 2 mps 739 mmHg 87%
    10:00 +4°C° 0 mm 2 mps 739 mmHg 83%
    11:00 +5°C° 0 mm 2 mps 740 mmHg 78%
    12:00 +6°C° 0 mm 2 mps 740 mmHg 74%
    13:00 +7°C° 0 mm 1 mps 740 mmHg 72%
    14:00 +7°C° 0 mm 1 mps 740 mmHg 69%
    15:00 +8°C° 0 mm 1 mps 741 mmHg 67%
    16:00 +7°C° 0.1 mm 1 mps 741 mmHg 72%
    17:00 +6°C° 0.1 mm 1 mps 741 mmHg 78%
    18:00 +5°C° 0.1 mm 1 mps 741 mmHg 83%
    19:00 +5°C° 0 mm 1 mps 742 mmHg 84%
    20:00 +4°C° 0 mm 1 mps 742 mmHg 85%
    21:00 +3°C° 0 mm 0 mps 742 mmHg 86%
    22:00 +4°C° 0.1 mm 1 mps 743 mmHg 87%
    23:00 +4°C° 0.1 mm 1 mps 743 mmHg 89%
    Show more